Terminal Aerodrome Forecast
Issued by NWS Omaha/Valley, NE

Home | Current Version | Previous Version | Graphics & Text | Print | Product List | Glossary On
Versions: 1 2 3 4 5 6 7 8 9 10 11 12 13 14 15 16 17 18 19 20 21 22 23 24
000
FTUS43 KOAX 261120
TAFOFK
TAF
KOFK 261120Z 2612/2712 25012KT P6SM SCT150
     FM261500 30015G25KT P6SM SCT250
     FM261800 33018G28KT P6SM SCT250
     FM262300 33010KT P6SM SCT250
     FM270300 31005KT P6SM SKC
     FM270700 VRB03KT P6SM SKC=

USA.gov is the U.S. government's official web portal to all federal, state and local government web resources and services.